Location: Robert Ferguson Observatory
(38.4385°N, 122.5078°W)
Time: 15:33:49
(UTC-07:00)

Daily predictions for brighter satellites

Satellite Brightness Start Highest point End
(mag) Time Altitude Azimuth Time Altitude Azimuth Time Altitude Azimuth
CENTAUR R/B 3.7 20:40:23 10° NNW 20:47:52 45° NE 20:55:49 10° ESE
Cosmos 292 Rocket 3.8 20:43:42 10° S 20:48:29 65° ESE 20:53:15 10° NNE
NOSS 3-2 (A) 4.5 20:41:35 10° NW 20:49:10 66° WSW 20:57:15 10° SSE
Cosmos 1455 Rocket 3.4 20:48:24 10° N 20:52:37 47° E 20:56:47 10° SSE
Spot 2 Rocket 3.7 20:48:53 10° S 20:53:56 75° WSW 20:58:59 10° NNW
COSMOS 2406 3.8 20:51:26 10° SSE 20:56:34 35° ESE 21:01:42 10° NE
Cosmos 1812 3.7 20:53:54 10° SSW 20:57:41 53° W 21:01:30 10° N
Meteor 1-18 Rocket 4.5 20:52:04 10° S 20:58:00 85° W 21:03:57 10° N
COSMOS 2455 2.9 20:53:05 10° NNW 20:59:07 71° ENE 21:05:05 10° SE
NOSS 2-2 (C) 3.6 20:55:43 10° SSW 20:59:33 49° ESE 21:03:46 10° NE
Cosmos 1680 Rocket 4.3 20:57:37 10° SSE 21:02:11 31° E 21:06:44 10° NE
Cosmos 1743 3.7 21:00:54 10° NNE 21:04:23 30° ENE 21:07:47 10° SE
CZ-2D R/B 4.3 21:01:36 10° S 21:05:17 46° W 21:09:00 10° NNW
Meteor 1-12 Rocket 4.4 20:59:26 10° N 21:05:30 80° E 21:11:28 10° SSE
ASTRO E2 3.7 21:06:39 10° WSW 21:10:08 29° S 21:13:07 13° ESE
Tiangong 2 1.7 21:11:22 10° SW 21:14:18 35° SSE 21:17:15 10° E
Spot 1 4.1 21:10:34 10° SSE 21:15:10 78° ENE 21:19:32 10° N
Iridium 4 Rocket 4.0 21:10:31 10° N 21:15:29 66° W 21:20:54 10° S
Envisat 3.0 21:10:50 10° SSE 21:15:55 87° ENE 21:21:01 10° NNW
ASTEX 1 4.1 21:16:00 12° SE 21:20:11 37° ENE 21:24:41 10° NNE
Cosmos 1709 Rocket 4.5 21:16:29 10° NNW 21:22:40 64° W 21:28:44 10° S
USA 186 3.6 21:21:59 10° SSW 21:24:52 29° W 21:27:43 10° NW
ISS -3.1 21:24:31 10° SSW 21:27:28 31° SE 21:30:27 10° ENE
Cosmos 1238 Rocket 4.4 21:25:49 10° SSE 21:32:08 48° E 21:38:28 10° NNE
Cosmos 1666 3.0 21:31:05 10° N 21:34:42 46° E 21:36:53 21° SE
Aureole 3 Rocket 3.8 21:28:27 10° S 21:35:30 73° E 21:40:29 10° NNE
Aureole 1 Rocket 2.5 21:33:52 10° S 21:37:18 47° ESE 21:40:17 10° NNE
CZ-4B DEB 3.3 21:36:22 12° S 21:39:00 52° W 21:41:56 10° NNW
Cosmos 1437 3.8 21:36:52 10° SSW 21:39:58 45° WNW 21:43:06 10° N
Meteor 2-4 Rocket 3.7 21:37:58 10° S 21:43:29 64° E 21:49:11 10° NNE
OAO 2 Rocket 3.4 21:40:40 10° WSW 21:45:30 55° S 21:48:58 19° E
DNEPR-1 R/B 4.0 21:42:21 10° NNW 21:46:30 50° NE 21:48:59 24° ESE
Cosmos 923 Rocket 4.3 21:42:19 10° SSW 21:47:38 72° WNW 21:52:57 10° NNE
Helios 1A 4.3 21:43:49 10° SSW 21:47:45 38° W 21:51:43 10° NNW
Meteor 1-29 4.4 21:45:03 10° N 21:48:14 39° WNW 21:51:23 10° SW
YAOGAN 6 2.8 21:50:59 19° S 21:53:23 62° W 21:56:52 10° NNW
USA 245 3.8 21:53:36 23° ENE 21:53:36 23° ENE 21:55:34 10° NNE
Meteor 2-13 Rocket 4.4 21:49:01 10° N 21:55:06 87° W 22:00:15 15° S
H-2A R/B 4.0 20:47:32 10° W 21:57:58 45° SW 22:02:51 22° SSE
YAOGAN 11 4.3 21:56:08 29° SE 21:58:03 51° ENE 22:02:15 10° N
Cosmos 405 Rocket 3.9 21:58:07 10° SSW 22:01:39 41° WNW 22:05:17 10° N
Cosmos 2184 Rocket 4.2 21:56:43 10° N 22:03:03 75° W 22:08:32 14° S
Cosmos 2074 Rocket 4.2 21:56:52 10° N 22:03:05 72° W 22:08:41 13° S
GENESIS II 4.4 21:59:54 10° NNW 22:03:49 58° ENE 22:05:05 37° ESE
CZ-3A R/B 1.0 21:59:46 10° SW 22:04:07 44° S 22:04:07 44° S
ERS-1 Rocket 3.1 22:01:30 20° S 22:05:00 76° WSW 22:10:02 10° NNW
Cosmos 1726 Rocket 4.5 22:01:54 10° NNE 22:05:45 31° ENE 22:06:36 28° E
Cosmos 1610 Rocket 4.4 22:00:41 10° N 22:06:59 82° E 22:11:09 22° S
Cosmos 1656 Rocket 4.1 22:03:39 10° NNW 22:08:58 55° WSW 22:12:38 20° S
MetOp-A 4.1 22:07:51 25° SSE 22:11:05 90° E 22:16:29 10° NNW
Cosmos 2058 Rocket 4.2 22:08:45 10° NNE 22:12:31 27° ENE 22:13:09 26° E
Meteor 1-23 Rocket 4.1 22:08:09 14° S 22:13:04 89° E 22:18:42 10° N
Cosmos 1441 Rocket 3.6 22:11:25 17° SSW 22:14:11 58° W 22:17:53 10° N
PSLV R/B 3.6 22:11:37 10° WNW 22:14:43 55° N 22:15:28 41° ENE
Cosmos 1025 Rocket 2.9 22:12:15 24° S 22:14:45 87° W 22:19:02 10° N
H-2A R/B 2.4 22:14:06 32° ESE 22:15:47 44° ENE 22:20:31 10° N
USA 267 4.1 22:16:49 10° ENE 22:21:19 26° ESE 22:21:19 26° ESE
Meteor 1-15 Rocket 4.1 22:18:20 10° N 22:23:57 82° E 22:26:28 34° SSE
SL-27 R/B 3.8 22:21:45 10° SW 22:25:13 41° WNW 22:28:43 10° N
DMSP B5D2-2 4.5 22:22:31 10° NNE 22:27:33 43° E 22:28:29 39° SE
Cosmos 1624 Rocket 4.1 22:24:46 10° NNW 22:30:01 64° ENE 22:31:37 43° SE
MOS 1-B Rocket 4.1 22:27:04 26° S 22:30:20 68° WSW 22:36:33 10° NNW
Intercosmos 24 4.0 22:27:53 10° NNW 22:31:45 62° W 22:32:32 47° SSW
Cosmos 962 Rocket 4.4 22:25:54 10° N 22:32:09 73° E 22:34:43 37° SSE
SL-08 RB Rocket 3.5 22:30:58 48° SSE 22:32:13 88° ENE 22:36:43 10° NNW
CENTAUR R/B 3.8 22:31:07 10° NW 22:38:45 48° WSW 22:43:43 23° S
ARGOS 3.3 22:36:34 33° S 22:38:59 68° WSW 22:44:24 10° NNW
H-2A R/B 2.9 22:39:03 36° E 22:39:28 37° ENE 22:43:38 10° N
Landsat 7 4.0 22:39:26 50° ESE 22:40:17 58° ENE 22:44:58 10° N
Cosmos 405 4.3 22:39:01 10° NNW 22:42:17 34° W 22:43:00 31° WSW
SPOT 5 3.0 22:41:33 41° SSW 22:42:45 56° W 22:47:01 10° NNW
Cosmos 2154 Rocket 4.3 22:40:24 10° NNW 22:46:41 64° W 22:50:03 28° SSW
Cosmos 2056 Rocket 3.3 22:43:35 10° NNW 22:48:47 88° ENE 22:49:51 57° SSE
SL-8 Rocket 4.1 22:44:28 10° N 22:50:40 62° E 22:52:21 46° SE
Tiangong 2 2.4 22:47:54 10° W 22:50:11 38° WNW 22:50:11 38° WNW
Cosmos 2278 3.9 22:45:40 10° NNW 22:51:17 58° ENE 22:52:35 47° ESE
Cosmos 2082 Rocket 2.4 22:51:36 49° ESE 22:51:56 49° ESE 22:57:23 10° NNE
COSMOS 2487 3.7 22:55:03 35° NNE 22:55:03 35° NNE 22:57:17 10° NNE
Cosmos 2366 rocket 4.3 22:48:48 10° N 22:54:44 48° E 22:55:56 42° ESE
Terra 1.9 22:54:57 55° E 22:55:20 57° ENE 23:00:01 10° N
CZ-4B R/B 4.2 22:54:50 10° NNE 22:59:03 38° E 22:59:03 38° E
Cosmos 1437 Rocket 3.6 22:56:28 10° NNW 23:00:05 40° W 23:00:20 40° WSW
ISS -1.6 23:01:04 10° W 23:03:58 27° NNW 23:06:51 10° NNE
SPOT 1/Viking Rocket 4.1 23:05:33 40° SW 23:06:54 51° W 23:11:56 10° NNW
IGS 5A 3.6 23:09:41 68° NNE 23:09:41 68° NNE 23:13:25 10° N
Cosmos 2369 3.6 23:04:13 10° NNW 23:09:59 82° ENE 23:10:51 65° SE
Timation 2 Rocket 4.3 23:12:40 45° ESE 23:12:40 45° ESE 23:18:24 10° NE
Cosmos 1697 Rocket 3.1 23:13:51 10° NNW 23:19:17 48° ENE 23:19:52 46° E
Cosmos 2228 3.4 23:16:38 10° NNW 23:20:39 56° W 23:20:39 56° W
Cosmos 1452 Rocket 3.5 23:15:48 10° NNW 23:21:04 69° ENE 23:21:14 69° E
Cosmos 1959 Rocket 4.4 23:15:03 10° N 23:21:27 89° E 23:22:43 61° S
SL-08 R/B 4.3 23:15:52 10° N 23:22:01 80° E 23:22:55 65° SSE
Cosmos 1602 Rocket 3.9 23:24:52 58° NNE 23:24:52 58° NNE 23:28:24 10° N
deb Chang Zheng 4 3.8 23:22:09 10° N 23:26:07 66° NW 23:26:07 66° NW
Cosmos 921 Rocket 3.7 23:22:26 10° NNW 23:26:30 49° W 23:26:30 49° W
OAO 2 Rocket 4.5 23:25:11 10° W 23:27:56 31° WSW 23:27:56 31° WSW
Cosmos 2218 Rocket 3.9 23:25:01 10° N 23:31:09 76° W 23:32:13 61° SSW
Cosmos 1833 Rocket 2.7 23:34:38 63° SW 23:35:29 76° WNW 23:41:09 10° NNE
Cosmos 1656 3.5 23:33:40 10° NNW 23:39:08 81° WSW 23:39:08 81° WSW
Meteor 1-4 Rocket 4.3 23:36:53 10° NNW 23:38:58 31° NW 23:38:58 31° NW
Meteor 1-21 4.1 23:44:22 81° E 23:44:22 81° E 23:50:04 10° N
CZ-4 R/B 4.2 23:39:43 10° N 23:44:41 62° WNW 23:44:55 61° W
Cosmos 468 4.5 23:44:48 77° WNW 23:44:48 77° WNW 23:50:03 10° NNE
H-2A R/B 3.9 23:54:44 18° WSW 23:55:25 18° W 23:58:51 10° NW
